FW3268 Weather Reports


Display with metric or nautical units.
time (UTC)temp
F
wind
direction
speed
MPH
gust
MPH
rain 1hr
in
rain 24hr
in
rain mn
in
humidity
%
barometer
mb
20260901121501 73 226 0.0 2.0 0.00 0.00 0.00 91 1017.1
20260901120004 72 240 0.0 1.0 0.00 0.00 0.00 92 1017.0
20260901114501 72 234 0.0 2.0 0.00 0.00 0.00 92 1016.9
20260901111501 72 238 0.0 2.0 0.00 0.00 0.00 91 1016.6
20260901110004 73 237 1.0 4.0 0.00 0.00 0.00 91 1016.4
20260901103001 72 240 0.0 0.0 0.00 0.00 0.00 92 1016.4
20260901101501 73 240 0.0 1.0 0.00 0.00 0.00 91 1016.3
20260901100004 74 231 2.0 5.0 0.00 0.00 0.00 89 1016.3
20260901094500 75 272 3.0 5.0 0.00 0.00 0.00 88 1016.2
20260901091501 74 264 2.0 5.0 0.00 0.00 0.00 90 1016.0
20260901090005 74 260 2.0 4.0 0.00 0.00 0.00 89 1016.0
20260901084502 75 250 3.0 6.0 0.00 0.00 0.00 88 1015.9
20260901083001 76 267 5.0 8.0 0.00 0.00 0.00 86 1015.9
20260901081500 76 269 5.0 10.0 0.00 0.00 0.00 87 1015.9
20260901080007 75 217 5.0 8.0 0.00 0.00 0.00 87 1015.8
20260901074501 75 273 4.0 8.0 0.00 0.00 0.00 88 1015.7
20260901073001 74 254 3.0 6.0 0.00 0.00 0.00 89 1015.7
20260901071500 74 242 2.0 5.0 0.00 0.00 0.00 90 1015.8
20260901064502 74 231 1.0 4.0 0.00 0.00 0.00 91 1016.0
20260901063001 74 234 1.0 4.0 0.00 0.00 0.00 91 1016.0
20260901061501 74 229 1.0 3.0 0.00 0.00 0.00 91 1016.0
20260901060005 74 227 1.0 2.0 0.00 0.00 0.00 91 1016.2
20260901054501 74 231 0.0 2.0 0.00 0.00 0.00 90 1016.2
20260901053001 75 231 1.0 3.0 0.00 0.00 0.00 89 1016.2
20260901051502 76 233 1.0 4.0 0.00 0.00 0.00 88 1016.1
20260901050005 76 238 2.0 4.0 0.00 0.00 0.00 87 1016.1
20260901044506 77 207 2.0 5.0 0.00 0.00 0.00 86 1016.0
20260901043002 77 216 2.0 6.0 0.00 0.00 0.00 86 1015.9
20260901041503 78 227 2.0 6.0 0.00 0.00 0.00 85 1015.9
20260901040007 78 193 3.0 8.0 0.00 0.00 0.00 84 1015.8
20260901034503 78 226 2.0 6.0 0.00 0.00 0.00 85 1015.8
20260901033003 77 165 2.0 6.0 0.00 0.00 0.00 87 1015.8
20260901030006 75 163 0.0 2.0 0.00 0.00 0.00 88 1016.2
20260901024502 75 148 0.0 0.0 0.00 0.00 0.00 87 1016.3
20260901023002 76 147 0.0 0.0 0.00 0.00 0.00 86 1016.6
20260901014503 78 147 0.0 0.0 0.00 0.00 0.00 84 1016.3
20260901013003 78 147 0.0 0.0 0.00 0.00 0.00 84 1016.3
20260901011505 79 148 0.0 1.0 0.00 0.00 0.00 83 1016.2
20260901010007 79 147 0.0 0.0 0.00 0.00 0.00 83 1016.0
20260901004504 79 147 1.0 2.0 0.00 0.00 0.00 82 1015.8
20260901001503 82 158 1.0 2.0 0.00 0.00 0.00 76 1015.8
20260901000006 85 220 1.0 3.0 0.00 0.00 0.00 72 1015.7
20260831233003 87 231 1.0 3.0 0.00 0.00 0.00 70 1015.7
20260831231504 87 250 1.0 4.0 0.00 0.00 0.00 70 1015.8
20260831230006 87 243 3.0 7.0 0.00 0.00 0.00 68 1015.7
20260831224502 88 258 4.0 7.0 0.00 0.00 0.00 67 1015.6
20260831221502 88 253 5.0 10.0 0.00 0.00 0.00 66 1015.8
20260831214502 88 190 6.0 13.0 0.00 0.00 0.00 66 1015.8
20260831213002 88 236 5.0 10.0 0.00 0.00 0.00 66 1015.9
20260831211502 88 264 6.0 11.0 0.00 0.00 0.00 65 1016.0
20260831210006 89 153 5.0 10.0 0.00 0.00 0.00 66 1016.0
20260831204501 88 244 5.0 12.0 0.00 0.00 0.00 66 1016.0
20260831203002 88 282 6.0 14.0 0.00 0.00 0.00 65 1016.0
20260831200005 89 248 6.0 12.0 0.00 0.00 0.00 63 1016.3
20260831193002 89 256 6.0 11.0 0.00 0.00 0.00 64 1016.9
20260831191502 89 278 7.0 14.0 0.00 0.00 0.00 63 1017.1
20260831190004 89 255 6.0 12.0 0.00 0.00 0.00 66 1017.4
20260831184502 88 271 6.0 13.0 0.00 0.00 0.00 66 1017.6
20260831181502 88 223 5.0 11.0 0.00 0.00 0.00 66 1017.8
20260831180004 86 255 7.0 14.0 0.00 0.00 0.00 67 1018.0
20260831171502 86 290 6.0 12.0 0.00 0.00 0.00 70 1018.1
20260831170004 84 295 4.0 9.0 0.00 0.00 0.00 75 1018.3
20260831164502 84 256 4.0 10.0 0.00 0.00 0.00 77 1018.4
20260831163001 83 229 4.0 8.0 0.00 0.00 0.00 79 1018.5
20260831161502 81 271 3.0 6.0 0.00 0.00 0.00 81 1018.6
20260831160006 81 271 3.0 6.0 0.00 0.00 0.00 80 1018.6
20260831154503 80 283 3.0 7.0 0.00 0.00 0.00 78 1018.6
20260831153002 80 250 3.0 6.0 0.00 0.00 0.00 80 1018.6
20260831151501 81 275 4.0 8.0 0.00 0.00 0.00 79 1018.4
20260831144502 80 200 4.0 8.0 0.00 0.00 0.00 82 1018.4
20260831141501 77 180 3.0 7.0 0.00 0.00 0.00 86 1018.1
20260831140006 76 183 3.0 8.0 0.00 0.00 0.00 86 1018.0
20260831133002 74 215 1.0 5.0 0.00 0.00 0.00 87 1018.1
20260831131502 73 174 1.0 4.0 0.00 0.00 0.00 89 1017.9
20260831130005 72 164 1.0 3.0 0.00 0.00 0.00 90 1017.8
20260831123002 71 167 1.0 3.0 0.00 0.00 0.00 91 1017.6